Location: Burjasot
(39.5167°N, 0.4167°W)
Time: 14:55:10
(UTC+02:00)

ISS - Visible Passes

Search period start: 03 August 2020 00:00
Search period end: 13 August 2020 00:00
Orbit: 419 x 420 km, 51.6° (Epoch: 04 August)

Date Brightness Start Highest point End Pass type
(mag) Time Alt. Az. Time Alt. Az. Time Alt. Az.
03 Aug -3.7 22:00:55 10° NW 22:04:18 80° SW 22:06:58 15° SE visible
04 Aug -1.3 22:51:16 10° W 22:53:11 14° SW 22:54:21 13° SSW visible
05 Aug -1.9 22:02:58 10° WNW 22:05:47 25° SW 22:08:35 10° S visible
